Weather History for Iron Mountain, MI

Change the Weather History Date:

Wednesday, February 1, 2012

  Actual Average Record
Temperature  
Mean Temperature 26 °F -  
Max Temperature 34 °F 26 °F 50 °F (1989)
Min Temperature 19 °F 3 °F -23 °F (1985)
Degree Days  
Heating Degree Days 38    
Moisture  
Dew Point 24 °F    
Average Humidity 82    
Maximum Humidity 96    
Minimum Humidity 73    
Precipitation  
Precipitation 0.00 in - - ()
Sea Level Pressure  
Sea Level Pressure 30.04 in    
Wind  
Wind Speed 10 mph (NW)    
Max Wind Speed 21 mph    
Max Gust Speed 28 mph    
Visibility 9 miles    
Events      
Averages and records for this station are not official NWS values.
T = Trace of Precipitation, MM = Missing Value Source: NWS Daily Summary

Daily Weather History Graph

Daily Weather History Graph

Search for Another Location

Airport:

Trip Planner

Search our weather history database for the weather conditions in past years. The results will help you decide how hot, cold, wet, or windy it might be!

Date:

Astronomy

Feb. 01, 2012 Rise Set
Actual Time 7:14 AM CST 4:57 PM CST
Civil Twilight 6:43 AM CST 5:29 PM CST
Nautical Twilight 6:07 AM CST 6:05 PM CST
Astronomical Twilight 5:32 AM CST 6:40 PM CST
Moon 11:20 AM CST (2/1) 2:04 AM CST (2/1)
Length of Visible Light 10h 46m
Length of Day
9h 42m
Waxing Gibbous, 65% of the Moon is Illuminated
Feb 1
Waxing Gibbous
Feb 7
Full
Feb 14
Last Quarter
Feb 21
New
Feb 29
First Quarter

Hourly Weather History & Observations

Time (CST) Temp. Windchill Dew Point Humidity Pressure Visibility Wind Dir Wind Speed Gust Speed Precip Events Conditions
12:54 AM 34.0 °F 22.7 °F 28.9 °F 82% 29.83 in 10.0 mi WNW 19.6 mph 26.5 mph N/A   Overcast
1:17 AM 33.8 °F 22.2 °F 28.4 °F 81% 29.80 in 10.0 mi NW 20.7 mph 26.5 mph N/A   Overcast
1:54 AM 34.0 °F 23.4 °F 28.0 °F 79% 29.86 in 10.0 mi WNW 17.3 mph 25.3 mph N/A   Overcast
2:08 AM 33.8 °F 23.2 °F 26.6 °F 75% 29.83 in 10.0 mi WNW 17.3 mph 27.6 mph N/A   Overcast
2:54 AM 33.1 °F 24.4 °F 27.0 °F 78% 29.90 in 10.0 mi WNW 11.5 mph 21.9 mph N/A   Overcast
4:54 AM 32.0 °F 24.8 °F 26.1 °F 79% 29.94 in 10.0 mi NW 8.1 mph - N/A   Overcast
5:54 AM 32.0 °F 23.0 °F 26.1 °F 79% 29.98 in 10.0 mi WNW 11.5 mph - N/A   Overcast
6:18 AM 30.2 °F 20.2 °F 26.6 °F 86% 29.94 in 10.0 mi WNW 12.7 mph - N/A   Overcast
6:54 AM 30.9 °F 22.8 °F 25.0 °F 79% 30.01 in 10.0 mi WNW 9.2 mph - N/A   Overcast
7:22 AM 30.2 °F 22.6 °F 24.8 °F 80% 29.97 in 10.0 mi NW 8.1 mph - N/A   Overcast
7:54 AM 30.9 °F 21.7 °F 25.0 °F 79% 30.03 in 10.0 mi NW 11.5 mph - N/A   Overcast
8:54 AM 30.9 °F 22.2 °F 25.0 °F 79% 30.04 in 10.0 mi NW 10.4 mph - N/A   Overcast
9:54 AM 30.9 °F 22.8 °F 25.0 °F 79% 30.06 in 10.0 mi WNW 9.2 mph - N/A   Overcast
10:54 AM 30.9 °F 21.7 °F 25.0 °F 79% 30.08 in 10.0 mi NW 11.5 mph - N/A   Overcast
11:54 AM 32.0 °F 24.2 °F 25.0 °F 75% 30.08 in 10.0 mi NNW 9.2 mph - N/A   Overcast
12:54 PM 33.1 °F 26.1 °F 26.1 °F 75% 30.08 in 10.0 mi NW 8.1 mph - N/A   Overcast
1:54 PM 33.1 °F 25.5 °F 26.1 °F 75% 30.08 in 10.0 mi WNW 9.2 mph - N/A   Overcast
2:54 PM 34.0 °F - 26.1 °F 73% 30.10 in 10.0 mi Calm Calm - N/A   Overcast
3:54 PM 34.0 °F - 26.1 °F 73% 30.10 in 10.0 mi Calm Calm - N/A   Overcast
4:54 PM 33.1 °F - 26.1 °F 75% 30.11 in 10.0 mi Calm Calm - N/A   Overcast
5:44 PM 30.2 °F 26.7 °F 24.8 °F 80% 30.07 in 10.0 mi East 3.5 mph - N/A   Scattered Clouds
5:54 PM 30.9 °F 27.5 °F 25.0 °F 79% 30.12 in 10.0 mi East 3.5 mph - N/A   Partly Cloudy
6:54 PM 26.1 °F - 23.0 °F 88% 30.13 in 10.0 mi Calm Calm - N/A   Scattered Clouds
7:54 PM 24.1 °F - 21.9 °F 91% 30.13 in 10.0 mi Calm Calm - N/A   Scattered Clouds
8:44 PM 21.2 °F - 19.4 °F 93% 30.08 in 1.2 mi Calm Calm - N/A   Clear
8:54 PM 21.9 °F - 19.9 °F 92% 30.13 in 2.5 mi Calm Calm - N/A   Clear
9:01 PM 21.2 °F - 19.4 °F 93% 30.07 in 10.0 mi Calm Calm - N/A   Clear
9:54 PM 19.0 °F - 18.0 °F 96% 30.15 in 2.0 mi Calm Calm - N/A   Clear
10:07 PM 21.2 °F - 19.4 °F 93% 30.09 in 9.0 mi Calm Calm - N/A   Clear
10:54 PM 21.0 °F 14.6 °F 19.9 °F 96% 30.15 in 10.0 mi SSE 4.6 mph - N/A   Clear
11:54 PM 23.0 °F 18.4 °F 19.9 °F 88% 30.15 in 10.0 mi SSE 3.5 mph - N/A   Clear